www.pogodaiklimat.ru

Погода и климат >> Архив погоды >> Россия >> Якутия >> Иэма


ПОГОДА в Иэме

  • Прогноз погоды в Иэме
  • Монитор погоды в Иэме
  • Климат города

АРХИВ ПОГОДЫ в Иэме

Время (UTC), дата Ветер
(напр.,м/с)
 
Видим.   Явления Облачность Т
(С)
Тd
(С)
f
(%)
Тe
(С)
Тes
(С)
Комфортность P
(гПа)
Po
(гПа)
Тmin
(С)
Tmax
(С)
R
(мм)
S
(см)
03 17.02 штиль 0 50 км ясно -46.3 -48.6 77 -46 -45 опасность
обморожения
1031.9 932.9
06 17.02 штиль 0 50 км 1/0
[Ci fib]
-43.1 -46.2 71 -43 -43 опасность
обморожения
1029.6 932.1
09 17.02 штиль 0 50 км ясно -46.0 -49.2 70 -46 -46 опасность
обморожения
1030.7 932.0 -43.1
12 17.02 штиль 0 50 км ясно -49.1 -51.4 77 -49 -49 опасность
обморожения
1032.4 932.2
15 17.02 штиль 0 50 км ясно -50.9 -53.1 77 -51 -51 опасность
обморожения
1033.0 932.0
18 17.02 СЗ 1 50 км ясно -51.6 -54.6 70 -58 -58 опасность
обморожения
1032.5 931.3
21 17.02 штиль 0 50 км ясно -51.4 -54.6 68 -51 -51 опасность
обморожения
1032.0 930.9 -52.0 32
00 18.02 С 1 50 км ясно -51.6 -54.6 70 -58 -58 опасность
обморожения
1032.0 930.8
03 18.02 С 1 50 км ясно -46.4 -48.6 78 -52 -51 опасность
обморожения
1028.6 928.9
06 18.02 штиль 0 50 км ясно -42.0 -45.0 72 -42 -42 опасность
обморожения
1025.6 928.7
09 18.02 В 1 50 км 3/0
[Ci fib]
-36.6 -39.4 75 -41 -41 опасность
обморожения
1023.3 929.0 -36.6
12 18.02 В 3 50 км 3/0
[Ci fib]
-35.4 -38.4 74 -46 -46 опасность
обморожения
1023.0 929.2
15 18.02 СЗ 2 50 км ясно -48.0 -50.6 74 -58 -58 опасность
обморожения
1028.3 929.0
18 18.02 С 1 50 км ясно -48.3 -50.6 77 -54 -54 опасность
обморожения
1028.6 929.1
21 18.02 штиль 0 50 км ясно -48.9 -51.8 71 -49 -49 опасность
обморожения
1029.4 929.5 -50.0 32
00 19.02 В 1 50 км 1/0
[Ci fib]
-49.4 -51.8 76 -56 -55 опасность
обморожения
1029.8 929.8 -50.5
03 19.02 штиль 0 50 км ясно -43.6 -46.3 74 -44 -42 опасность
обморожения
1026.5 929.2
06 19.02 Ю 1 50 км ясно -40.8 -44.4 68 -46 -46 опасность
обморожения
1024.9 928.8
09 19.02 штиль 0 50 км ясно -49.0 -52.4 67 -49 -49 опасность
обморожения
1029.0 929.2 -43.6
12 19.02 штиль 0 50 км 3/0
[Ci fib]
-46.5 -49.6 70 -47 -47 опасность
обморожения
1028.0 929.3
15 19.02 штиль 0 50 км ясно -49.0 -51.8 72 -49 -49 опасность
обморожения
1029.4 929.5
18 19.02 штиль 0 50 км ясно -49.6 -51.8 77 -50 -50 опасность
обморожения
1029.4 929.4
21 19.02 штиль 0 50 км ясно -48.5 -50.6 79 -49 -49 опасность
обморожения
1029.0 929.4 -50.5 32
00 20.02 штиль 0 50 км ясно -49.0 -51.8 72 -49 -49 опасность
обморожения
1030.1 930.2
03 20.02 штиль 0 50 км ясно -44.0 -47.0 72 -44 -42 опасность
обморожения
1027.3 929.7
06 20.02 З 2 50 км ясно -41.3 -44.4 72 -51 -50 опасность
обморожения
1026.0 929.5
09 20.02 штиль 0 50 км ясно -43.5 -44.5 90 -44 -44 опасность
обморожения
1027.6 930.2 -41.3
12 20.02 В 1 50 км ясно -46.5 -49.2 74 -52 -52 опасность
обморожения
1029.8 930.9
15 20.02 штиль 0 50 км ясно -49.0 -51.8 72 -49 -49 опасность
обморожения
1031.0 931.0
18 20.02 штиль 0 50 км ясно -48.0 -50.6 74 -48 -48 опасность
обморожения
1030.7 931.2
21 20.02 штиль 0 50 км ясно -49.3 -51.8 75 -49 -49 опасность
обморожения
1032.0 931.7 -51.7 32
00 21.02 штиль 0 50 км 3/0
[Ci fib]
-49.1 -51.8 73 -49 -49 опасность
обморожения
1032.3 932.1
03 21.02 штиль 0 50 км 8/0
[Ci fib]
-45.1 -47.8 74 -45 -44 опасность
обморожения
1030.4 932.1
06 21.02 штиль 0 50 км 8/0
[Ci fib]
-42.6 -46.2 68 -43 -42 опасность
обморожения
1029.3 932.1
09 21.02 СЗ 1 50 км 4/0
[Ci fib]
-43.2 -46.9 67 -49 -49 опасность
обморожения
1030.4 932.8 -42.6
12 21.02 штиль 0 50 км 8/0
[Ci fib]
-42.6 -45.6 72 -43 -43 опасность
обморожения
1030.2 932.9
15 21.02 штиль 0 50 км 8/0
[Ac trans Ci fib]
-40.4 -43.3 73 -40 -40 опасность
обморожения
1029.0 932.7
18 21.02 штиль 0 20 км слабый снег 9/0
[As op]
-40.4 -43.3 73 -40 -40 опасность
обморожения
1028.8 932.5
21 21.02 штиль 0 20 км слабый снег 9/0
[As op]
-40.5 -43.3 74 -41 -41 опасность
обморожения
1028.5 932.2 -44.0 0.2 32
00 22.02 штиль 0 20 км слабый снег ясно -40.0 -42.2 79 -40 -39 опасность
обморожения
1027.9 932.0
03 22.02 штиль 0 50 км снег 8/0
[As op]
-37.5 -40.5 73 -38 -37 опасность
обморожения
1026.2 931.3
06 22.02 штиль 0 50 км снег 8/0
[Ac trans Ci fib]
-35.5 -39.0 70 -36 -35 опасность
обморожения
1024.4 930.4
09 22.02 штиль 0 50 км слабый снег 10/0
[As op]
-34.0 -36.8 76 -34 -34 опасность
обморожения
1024.2 930.7 -34.0
12 22.02 штиль 0 20 км снег 10/0
[As op]
-33.0 -35.4 79 -33 -33 опасность
обморожения
1023.3 930.3
15 22.02 штиль 0 20 км снег 10/0
[As op]
-33.2 -35.6 79 -33 -33 опасность
обморожения
1022.7 929.7
18 22.02 штиль 0 20 км снег 9/0
[As op]
-33.0 -35.4 79 -33 -33 опасность
обморожения
1022.2 929.3
21 22.02 штиль 0 50 км {снег} 5/0
[As op]
-35.2 -37.4 80 -35 -35 опасность
обморожения
1022.9 929.2 -36.3 0.3 32
00 23.02 штиль 0 50 км {снег} 9/0
[As op]
-39.5 -41.7 79 -40 -39 опасность
обморожения
1024.6 929.0 -40.0
03 23.02 штиль 0 50 км {снег} 9/0
[As op]
-39.5 -41.7 79 -40 -39 опасность
обморожения
1024.6 929.0 -40.0
06 23.02 штиль 0 50 км 9/0
[Ac trans]
-32.4 -35.9 71 -32 -32 опасность
обморожения
1020.0 927.5
09 23.02 штиль 0 50 км 9/0
[Ac trans Ci fib]
-36.5 -39.4 74 -37 -37 опасность
обморожения
1021.7 927.5 -32.4
12 23.02 штиль 0 50 км 5/0
[Ci fib]
-38.0 -40.3 79 -38 -38 опасность
обморожения
1022.3 927.5
15 23.02 штиль 0 50 км 4/0
[Ci fib]
-39.5 -41.7 79 -40 -40 опасность
обморожения
1023.0 927.5
18 23.02 штиль 0 50 км 4/0
[Ci fib]
-40.3 -42.7 78 -40 -40 опасность
обморожения
1023.8 928.0
21 23.02 штиль 0 50 км 4/0
[Ci fib]
-40.0 -42.2 79 -40 -40 опасность
обморожения
1023.9 928.3 -41.5 32

 

Местоположение метеостанции Иэма (Якутия, Россия): широта 65.30 долгота 135.80 высота над уровнем моря 675 м.

В архиве по умолчанию представлена погода в Иэме за последнюю неделю. Архивные данные за месяц целиком и за предыдущие месяцы, начиная с января 2011 года, Вы можете получить, выбрав интересующий диапазон дат из раскрывающегося списка и нажав кнопку "Ввод!".

Внимание! Время в таблицах - всемирное. Для получения местного времени необходимо прибавить поправку, которая в Иэме равна 9 ч.

Смотрите также архив погоды в соседних городах и на ближайших метеорологических станциях:

Погода в Томпо (Якутия, Россия) (150 км)
Погода в Усть-Чарках (Якутия, Россия) (171 км)
Погода в Екюччю (Якутия, Россия) (250 км)
Погода в Батагае (Якутия, Россия) (267 км)
Погода в Себян-Кюеле (Якутия, Россия) (269 км)
Погода в Верхоянске (Якутия, Россия) (274 км)
Погода в Крест-Хальджае (Якутия, Россия) (284 км)
Погода в Теплом Ключе (Якутия, Россия) (284 км)
Погода в Верхоянском Перевозе (Якутия, Россия) (286 км)
Погода в Восточной (Якутия, Россия) (294 км)

Пояснения к столбцам:

Ветер - указаны скорость ветра в м/с - средняя за 10 мин, порывы в срок и между сроками (в фигурных скобках) и направление, откуда дует ветер: С - северный, СВ - северо-восточный, В - восточный, ЮВ - юго-восточный, Ю - южный, ЮЗ - юго-западный, З - западный, СЗ - северо-западный.
Видимость - горизонтальная дальность видимости в метрах или километрах. При видимости от 1 до 10 км при отсутствии осадков обычно наблюдается дымка, при ухудшении видимости до 1 км и менее - туман. В сухую погоду видимость может ухудшаться дымом, пылью или мглою.
Явления - указаны атмосферные явления, наблюдавшиеся в срок или в последний час перед сроком; фигурными скобками обозначены явления, наблюдавшиеся между сроками (за 1-3 часа до срока); квадратными скобками обозначены град или гололедные отложения с указанием их диаметра в мм.
Облачность - указаны через наклонную черту общая и нижняя облачность в баллах и высота нижней границы облаков в метрах; квадратными скобками обозначены формы облаков: Ci - перистые, Cs - перисто-слоистые, Cc - перисто-кучевые, Ac - высококучевые, As - высокослоистые, Sc - слоисто-кучевые, Ns - слоисто-дождевые, Cu - кучевые, Cb - кучево-дождевые. Подробнее классификацию облаков см. в Атласе облаков (PDF).
T - Температура воздуха - температура, измеренная на высоте 2 м над землей.
Td - Температура точки росы - температура, при понижении до которой содержащийся в воздухе водяной пар достигнет насыщения.
f - Относительная влажность воздуха - влажноcть воздуха, измеренная на высоте 2 м над землей.
Te - Эффективная температура - температура, которую ощущает одетый по сезону человек в тени. Характеристика душности погоды. При расчете учитывается влияние влажности воздуха и скорости ветра на теплоощущения человека.
Tes - Эффективная температура на солнце - температура, которую ощущает человек, с поправкой на солнечный нагрев. Характеристика знойности погоды. Зависит от высоты солнца над горизонтом, облачности и скорости ветра. Ночью, в пасмурную погоду, а также при ветре 12 м/с и более поправка равна нулю.
P - Атмосферное давление - приведенное к уровню моря атмосферное давление.
Po - Атмосферное давление - измеренное на уровне метеостанции атмосферное давление.
Tmin - Минимальная температура - минимум температуры воздуха на высоте 2 м над землей.
Tmax - Максимальная температура - максимум температуры воздуха на высоте 2 м над землей.
R - Количество осадков - Количество выпавших осадков, мм. При наведении курсора мыши на число - период времени, за который выпало указанное количество осадков.
S - Снежный покров - Высота снежного покрова, см. При наведении курсора мыши на число - состояние снежного покрова и степень покрытия местности в баллах.